National Weather Service United States Department of Commerce


000
ASUS42 KCAE 302110
RWRCAE
REGIONAL WEATHER ROUNDUP
NATIONAL WEATHER SERVICE COLUMBIA SC
500 PM EDT THU JUN 30 2022

NOTE: "FAIR" INDICATES FEW OR NO CLOUDS BELOW 12,000 FEET WITH NO
SIGNIFICANT WEATHER AND/OR OBSTRUCTIONS TO VISIBILITY.

NOT ALL STATIONS ARE QUALITY CONTROLLED BY THE NATIONAL
WEATHER SERVICE. USE DATA WITH CAUTION...ESPECIALLY
DEWPOINT OBSERVATIONS.

SCZ001>059-115-116-135>137-GAZ040-063>065-077-302200-
...UPSTATE SOUTH CAROLINA...

CITY SKY/WX TMP DP RH WIND PRES REMARKS
ANDERSON MOSUNNY 89 67 47 E12 30.15F
LIBERTY MOSUNNY 86 69 55 SE7 30.16F
SPARTANBURG PTSUNNY 88 63 42 SE5 30.16F
CLEMSON MOSUNNY 86 66 51 VRB7 30.15F
GREENVILLE MOSUNNY 90 65 43 SE10 30.17F
GREENWOOD MOSUNNY 87 68 52 MISG 30.16F
GREER MOSUNNY 88 63 43 CALM 30.16F
ROCK HILL MOSUNNY 88 67 49 VRB5 30.16F
LAURENS MOSUNNY 88 68 51 SE9 30.15F


...CENTRAL SOUTH CAROLINA...

CITY SKY/WX TMP DP RH WIND PRES REMARKS
COLUMBIA APT PTSUNNY 87 70 56 E15 30.13S
COLUMBIA OWENS MOSUNNY 89 70 53 VRB7 30.14F
MCENTIRE ANGB LGT RAIN 78 78 100 S7 30.14R
ORANGEBURG PTSUNNY 83 72 69 SE10G20 30.16S
SUMTER SHAW MOSUNNY 82 71 68 SE9G18 30.14F
NEWBERRY MOSUNNY 86 68 54 CALM 30.18F
AIKEN PTSUNNY 89 66 47 E9G16 30.15S
BARNWELL PTSUNNY 82 72 69 SE18G25 30.16R
MANNING PTSUNNY 79 73 83 NE5 30.16F
CAMDEN PTSUNNY 88 70 55 SE12G21 30.15F
LANCASTER MOSUNNY 90 66 45 SE5 30.16S
WINNSBORO PTSUNNY 84 68 58 NE3 30.15F


...EASTERN AND COASTAL SOUTH CAROLINA...

CITY SKY/WX TMP DP RH WIND PRES REMARKS
MYRTLE BEACH PTSUNNY 83 75 77 E10 30.18F
N MYRTLE BCH PTSUNNY 82 73 74 E10 30.17F
CONWAY FAIR 81 72 74 SE6 30.17F
MARION FAIR 81 70 69 SE6 30.17S
HARTSVILLE FAIR 86 70 58 S9G20 30.16S
FLORENCE PTSUNNY 84 72 67 E15 30.17R
DARLINGTON CLOUDY 86 71 60 SE7 30.15F
CHARLESTON APT PTSUNNY 83 71 67 SE15 30.15S
MOUNT PLEASANT PTSUNNY 82 77 83 VRB6G12 30.15S
WALTERBORO PTSUNNY 77 77 100 N6 30.16R
BEAUFORT PTSUNNY 85 73 67 SE14G20 30.14S
HILTON HEAD MOSUNNY 84 75 74 SE9 30.14S


...EASTERN GEORGIA...

CITY SKY/WX TMP DP RH WIND PRES REMARKS
AUGUSTA BUSH F MOSUNNY 88 70 55 SE8 30.11F
AUGUSTA DANIEL MOSUNNY 90 67 46 VRB3 30.12F
THOMSON MOSUNNY 90 66 45 E7 30.12F
WASHINGTON FAIR 89 67 48 SE5 30.13F
CLAXTON CLOUDY 85 73 65 E16 30.11R
STATESBORO MOSUNNY 85 69 59 SE9 30.12S
SAVANNAH PTSUNNY 86 71 60 E12 30.12S


...SOUTHERN NORTH CAROLINA...

CITY SKY/WX TMP DP RH WIND PRES REMARKS
CHARLOTTE MOSUNNY 89 66 46 E8 30.16F
MONROE PTSUNNY 88 64 44 NE8 30.15F
WADESBORO PTSUNNY 90 64 41 E7 30.15F
ROCKINGHAM PTSUNNY 89 67 49 E8 30.15F
RUTHERFORDTON PTSUNNY 86 63 45 SE8G16 30.18F
ASHEVILLE PTSUNNY 81 63 54 SE8 30.23F

$$